SCP
0 0 0 0 0 0 0 0 0 0 0 0 0 0 0 0 0 0 0 0 0 0 0 0 0 0 0 0 0 0 0 0 0
0 0 0 0 0 0 0 0 0 0 0 0 0 0 0 0 0 0 0 0 0 0 0 0 0 0 0 0 0 0 0 0 0
0 0 0 0 0 0 0 0 0 0 0 0 0 0 0 0 0 0 0 0 0 0 0 0 0 0 0 0 0 0 0 0 0
0 0 0 0 0 0 0 0 0 0 0 0 0 0 0 0 0 0 0 0 0 0 0 0 0 0 0 0 0 0 0 0 0
0 0 0 0 0 0 0 0 0 0 0 0 0 0 0 0 0 0 0 0 0 0 0 0 0 0 0 0 0 0 0 0 0
0 0 0 0 0 0 0 0 0 0 0 0 0 0 0 0 0 0 0 0 0 0 0 0 0 0 0 0 0 0 0 0 0
0 0 0 0 0 0 0 0 0 0 0 0 0 0 0 0 0 0 0 0 0 0 0 0 0 0 0 0 0 0 0 0 0
0 0 0 0 0 0 0 0 0 0 0 0 0 0 0 0 0 0 0 0 0 0 0 0 0 0 0 0 0 0 0 0 0
0 0 0 0 0 0 0 0 0 0 0 0 0 0 0 0 0 0 0 0 0 0 0 0 0 0 0 0 0 0 0 0 0
0 0 0 0 0 0 0 0 0 0 0 0 0 0 0 0 0 0 0 0 0 0 0 0 0 0 0 0 0 0 0 0 0
0 0 0 0 0 0 0 0 0 0 0 0 0 0 0 0 0 0 0 0 0 0 0 0 0 0 0 0 0 0 0 0 0
0 0 0 0 0 0 0 0 0 0 0 0 0 0 0 0 0 0 0 0 0 0 0 0 0 0 0 0 0 0 0 0 0
0 0 0 0 0 0 0 0 0 0 0 0 0 0 0 0 0 0 0 0 0 0 0 0 0 0 0 0 0 0 0 0 0
0 0 0 0 0 0 0 0 0 0 0 0 0 0 0 0 0 0 0 0 0 0 0 0 0 0 0 0 0 0 0 0 0
0 0 0 0 0 0 0 0 0 0 0 0 0 0 0 0 0 0 0 0 0 0 0 0 0 0 0 0 0 0 0 0 0
0 0 0 0 0 0 0 0 0 0 0 0 0 0 0 0 0 0 0 0 0 0 0 0 0 0 0 0 0 0 0 0 0
0 0 0 0 0 0 0 0 0 0 0 0 0 0 0 0 0 0 0 0 0 0 0 0 0 0 0 0 0 0 0 0 0
0 0 0 0 0 0 0 0 0 0 -0 0 0 0 0 0 0 0 0 0 0 0 0 0 0 0 0 0 0 0 0 0 0
0 0 0 0 0 0 0 0 0 0 0 0 0 0 0 0 0 0 0 0 0 0 0 0 0 0 0 0 0 0 0 0 0
0 0 0 0 0 0 0 0 0 0 0 0 0 0 0 0 0 0 0 0 0 0 0 0 0 0 -0 -0 0 0 0 0 0
Wind_Speed_500mb
19 19 19 18 17 16 17 17 18 18 18 20 25 28 31 33 34 34 34 30 28 28 28 24 21 26 23 20 19 23 24 23 23
21 21 20 20 19 19 18 18 18 18 18 19 20 22 24 26 29 31 34 35 34 32 31 33 31 25 28 27 25 24 26 29 30
25 24 22 22 21 20 20 20 19 19 19 19 19 19 19 20 22 24 27 29 31 30 34 38 34 33 26 32 30 29 28 31 34
25 24 23 22 21 21 20 20 19 18 18 18 19 19 20 18 17 17 17 19 19 20 30 38 37 36 36 29 28 32 32 34 36
21 21 21 22 23 23 22 22 21 21 22 23 22 21 19 18 17 17 15 13 14 17 25 32 36 38 40 39 34 33 36 35 35
20 19 19 20 20 21 21 21 21 20 20 21 21 21 20 19 18 17 16 15 16 20 25 28 30 34 37 42 46 45 43 41 41
20 20 20 20 20 22 21 21 22 22 22 21 20 20 19 18 16 16 17 16 16 18 21 24 25 27 31 36 40 45 48 51 52
20 21 20 21 24 24 24 24 25 25 26 24 24 23 20 17 16 16 14 13 13 15 19 22 23 23 23 25 30 36 40 44 50
21 22 23 24 25 26 27 26 27 28 28 28 25 24 21 19 16 14 11 12 14 17 19 19 20 22 19 18 21 22 26 34 42
22 24 25 26 27 27 27 28 28 30 28 28 28 25 22 20 15 10 8 10 13 12 11 13 15 20 21 20 24 24 26 29 30
23 25 26 28 28 29 30 31 31 32 32 30 29 27 24 19 10 5 7 9 12 13 13 14 17 15 11 13 14 18 20 23 28
25 27 28 29 30 31 30 30 31 32 30 30 30 27 23 17 8 7 6 9 12 15 16 17 17 15 14 11 14 18 19 19 23
26 28 29 29 30 31 31 31 29 30 29 28 26 24 18 7 9 9 2 8 14 18 19 20 21 21 19 18 18 19 22 25 28
28 29 29 30 31 31 32 32 34 34 30 27 22 15 7 5 10 6 5 12 17 21 24 25 24 24 23 22 20 20 22 28 30
28 29 30 31 31 31 30 31 31 35 35 25 17 8 2 6 7 3 11 17 21 26 29 29 27 27 25 24 25 26 26 30 37
27 29 30 31 31 33 34 32 30 30 30 24 14 4 3 5 3 11 17 26 30 36 37 36 28 26 24 24 25 28 31 33 35
26 28 30 30 30 31 33 34 33 33 33 30 19 10 6 13 19 25 28 26 33 38 36 29 22 22 24 23 24 28 32 34 34
25 27 29 30 31 32 33 33 34 33 31 27 19 9 10 38 10 14 18 24 34 30 28 20 15 19 24 24 26 31 33 35 35
22 24 25 26 28 28 30 32 32 31 30 24 19 16 15 11 20 12 29 33 24 25 17 13 14 21 24 26 31 33 35 38 36
20 21 23 24 26 28 29 29 29 29 28 28 26 19 16 12 15 37 47 35 24 25 16 16 17 23 32 36 35 38 39 39 38
Wind_Direction_500mb
347 348 346 343 338 334 330 326 318 310 298 284 275 272 272 270 268 262 259 261 263 262 261 263 271 259 258 257 263 257 259 259 258
346 342 343 346 346 341 336 328 322 316 310 301 295 289 284 278 272 268 264 261 258 259 263 265 270 272 262 263 263 261 257 258 261
352 348 348 348 346 347 343 339 334 328 323 318 312 307 303 301 295 283 270 263 262 262 260 262 268 268 274 258 264 263 264 258 258
359 357 355 353 350 346 344 342 338 334 331 327 322 316 311 310 310 307 296 275 264 256 256 261 260 262 268 275 274 267 266 263 260
359 359 359 358 355 352 348 344 340 335 332 330 325 321 318 314 312 309 305 288 267 263 271 273 268 265 266 268 271 271 272 270 270
358 0 2 360 356 351 347 343 340 337 333 328 325 321 319 314 309 303 296 286 279 279 281 284 283 277 272 270 271 270 267 270 272
3 2 359 359 356 351 347 344 342 339 333 328 324 321 320 318 314 305 297 295 293 293 295 294 294 287 282 279 275 270 267 267 268
6 4 3 0 358 354 351 348 345 342 339 336 330 325 321 315 311 305 307 312 309 306 305 302 299 302 294 297 289 282 276 272 269
8 4 359 356 352 350 347 342 340 338 335 333 332 327 322 317 307 306 313 306 312 316 314 322 318 314 312 307 302 305 295 287 279
2 357 351 345 342 339 335 333 330 327 327 325 323 322 319 316 306 302 308 315 326 324 341 352 15 7 353 340 334 323 313 296 292
356 351 347 344 341 339 338 337 335 331 329 324 317 317 316 313 292 269 283 312 324 328 319 323 338 349 20 359 332 331 336 325 309
345 342 341 338 335 334 334 333 331 328 329 324 318 314 310 295 256 226 268 308 316 323 332 339 344 342 337 334 329 334 332 329 322
343 343 341 340 338 336 337 336 334 332 334 331 323 319 319 263 204 202 298 310 315 320 329 334 340 338 330 333 341 348 346 339 330
346 346 346 345 342 340 341 344 339 339 346 341 337 340 6 142 185 186 277 315 310 316 322 324 327 325 328 331 331 329 333 336 336
347 348 348 349 347 345 345 349 347 345 352 354 351 354 54 170 187 265 292 293 308 315 315 318 318 311 315 323 325 321 320 331 341
350 353 354 354 352 352 353 355 352 352 360 3 350 273 188 167 244 271 282 289 299 312 309 314 309 306 311 320 321 322 323 323 341
355 357 358 0 1 358 358 360 1 0 6 13 12 356 294 255 280 276 281 294 304 309 313 310 302 300 306 319 325 326 325 326 331
358 -0 2 3 4 3 5 5 5 4 9 13 23 360 339 334 347 297 296 312 325 321 321 317 303 300 311 321 322 325 327 328 331
356 360 3 5 7 7 7 9 8 5 6 10 10 1 343 336 323 320 324 331 345 340 329 320 312 317 321 326 328 329 329 330 331
347 354 -0 2 2 3 5 5 6 6 4 1 358 352 341 328 312 319 337 346 4 345 335 304 302 308 312 318 322 325 325 327 330
Wind_Speed_850mb
19 19 19 18 17 16 17 17 18 18 18 20 25 28 31 33 34 34 34 30 28 28 28 24 21 26 23 20 19 23 24 23 23
21 21 20 20 19 19 18 18 18 18 18 19 20 22 24 26 29 31 34 35 34 32 31 33 31 25 28 27 25 24 26 29 30
25 24 22 22 21 20 20 20 19 19 19 19 19 19 19 20 22 24 27 29 31 30 34 38 34 33 26 32 30 29 28 31 34
25 24 23 22 21 21 20 20 19 18 18 18 19 19 20 18 17 17 17 19 19 20 30 38 37 36 36 29 28 32 32 34 36
21 21 21 22 23 23 22 22 21 21 22 23 22 21 19 18 17 17 15 13 14 17 25 32 36 38 40 39 34 33 36 35 35
20 19 19 20 20 21 21 21 21 20 20 21 21 21 20 19 18 17 16 15 16 20 25 28 30 34 37 42 46 45 43 41 41
20 20 20 20 20 22 21 21 22 22 22 21 20 20 19 18 16 16 17 16 16 18 21 24 25 27 31 36 40 45 48 51 52
20 21 20 21 24 24 24 24 25 25 26 24 24 23 20 17 16 16 14 13 13 15 19 22 23 23 23 25 30 36 40 44 50
21 22 23 24 25 26 27 26 27 28 28 28 25 24 21 19 16 14 11 12 14 17 19 19 20 22 19 18 21 22 26 34 42
22 24 25 26 27 27 27 28 28 30 28 28 28 25 22 20 15 10 8 10 13 12 11 13 15 20 21 20 24 24 26 29 30
23 25 26 28 28 29 30 31 31 32 32 30 29 27 24 19 10 5 7 9 12 13 13 14 17 15 11 13 14 18 20 23 28
25 27 28 29 30 31 30 30 31 32 30 30 30 27 23 17 8 7 6 9 12 15 16 17 17 15 14 11 14 18 19 19 23
26 28 29 29 30 31 31 31 29 30 29 28 26 24 18 7 9 9 2 8 14 18 19 20 21 21 19 18 18 19 22 25 28
28 29 29 30 31 31 32 32 34 34 30 27 22 15 7 5 10 6 5 12 17 21 24 25 24 24 23 22 20 20 22 28 30
28 29 30 31 31 31 30 31 31 35 35 25 17 8 2 6 7 3 11 17 21 26 29 29 27 27 25 24 25 26 26 30 37
27 29 30 31 31 33 34 32 30 30 30 24 14 4 3 5 3 11 17 26 30 36 37 36 28 26 24 24 25 28 31 33 35
26 28 30 30 30 31 33 34 33 33 33 30 19 10 6 13 19 25 28 26 33 38 36 29 22 22 24 23 24 28 32 34 34
25 27 29 30 31 32 33 33 34 33 31 27 19 9 10 38 10 14 18 24 34 30 28 20 15 19 24 24 26 31 33 35 35
22 24 25 26 28 28 30 32 32 31 30 24 19 16 15 11 20 12 29 33 24 25 17 13 14 21 24 26 31 33 35 38 36
20 21 23 24 26 28 29 29 29 29 28 28 26 19 16 12 15 37 47 35 24 25 16 16 17 23 32 36 35 38 39 39 38
Wind_Direction_850mb
347 348 346 343 338 334 330 326 318 310 298 284 275 272 272 270 268 262 259 261 263 262 261 263 271 259 258 257 263 257 259 259 258
346 342 343 346 346 341 336 328 322 316 310 301 295 289 284 278 272 268 264 261 258 259 263 265 270 272 262 263 263 261 257 258 261
352 348 348 348 346 347 343 339 334 328 323 318 312 307 303 301 295 283 270 263 262 262 260 262 268 268 274 258 264 263 264 258 258
359 357 355 353 350 346 344 342 338 334 331 327 322 316 311 310 310 307 296 275 264 256 256 261 260 262 268 275 274 267 266 263 260
359 359 359 358 355 352 348 344 340 335 332 330 325 321 318 314 312 309 305 288 267 263 271 273 268 265 266 268 271 271 272 270 270
358 0 2 360 356 351 347 343 340 337 333 328 325 321 319 314 309 303 296 286 279 279 281 284 283 277 272 270 271 270 267 270 272
3 2 359 359 356 351 347 344 342 339 333 328 324 321 320 318 314 305 297 295 293 293 295 294 294 287 282 279 275 270 267 267 268
6 4 3 0 358 354 351 348 345 342 339 336 330 325 321 315 311 305 307 312 309 306 305 302 299 302 294 297 289 282 276 272 269
8 4 359 356 352 350 347 342 340 338 335 333 332 327 322 317 307 306 313 306 312 316 314 322 318 314 312 307 302 305 295 287 279
2 357 351 345 342 339 335 333 330 327 327 325 323 322 319 316 306 302 308 315 326 324 341 352 15 7 353 340 334 323 313 296 292
356 351 347 344 341 339 338 337 335 331 329 324 317 317 316 313 292 269 283 312 324 328 319 323 338 349 20 359 332 331 336 325 309
345 342 341 338 335 334 334 333 331 328 329 324 318 314 310 295 256 226 268 308 316 323 332 339 344 342 337 334 329 334 332 329 322
343 343 341 340 338 336 337 336 334 332 334 331 323 319 319 263 204 202 298 310 315 320 329 334 340 338 330 333 341 348 346 339 330
346 346 346 345 342 340 341 344 339 339 346 341 337 340 6 142 185 186 277 315 310 316 322 324 327 325 328 331 331 329 333 336 336
347 348 348 349 347 345 345 349 347 345 352 354 351 354 54 170 187 265 292 293 308 315 315 318 318 311 315 323 325 321 320 331 341
350 353 354 354 352 352 353 355 352 352 360 3 350 273 188 167 244 271 282 289 299 312 309 314 309 306 311 320 321 322 323 323 341
355 357 358 0 1 358 358 360 1 0 6 13 12 356 294 255 280 276 281 294 304 309 313 310 302 300 306 319 325 326 325 326 331
358 -0 2 3 4 3 5 5 5 4 9 13 23 360 339 334 347 297 296 312 325 321 321 317 303 300 311 321 322 325 327 328 331
356 360 3 5 7 7 7 9 8 5 6 10 10 1 343 336 323 320 324 331 345 340 329 320 312 317 321 326 328 329 329 330 331
347 354 -0 2 2 3 5 5 6 6 4 1 358 352 341 328 312 319 337 346 4 345 335 304 302 308 312 318 322 325 325 327 330